Delhi Cantonment, India

10:08 AM IST on February 20, 2017 (GMT +0530)
Indira Gandhi International

Weather History for VIDP - February, 2014

Change the Weather History Date:

Sunday, February 23, 2014

  Actual Average Record
Temperature  
Mean Temperature 61 °F -  
Max Temperature 69 °F 81 °F 86 °F (2016)
Min Temperature 53 °F 57 °F 53 °F (2014)
Degree Days  
Heating Degree Days 4    
Growing Degree Days 11 (Base 50)    
Moisture  
Dew Point 55 °F    
Average Humidity 87    
Maximum Humidity 100    
Minimum Humidity 56    
Precipitation  
Precipitation 0.00 in - - ()
Sea Level Pressure  
Sea Level Pressure 30.09 in    
Wind  
Wind Speed 4 mph ()    
Max Wind Speed 10 mph    
Max Gust Speed -    
Visibility 0.7 miles    
Events Fog    
Averages and records for this station are not official NWS values.
T = Trace of Precipitation, MM = Missing Value Source: Averaged Metar Reports

Daily Weather History Graph

Daily Weather History Graph

Search for Another Location

Airport or City:

Trip Planner

Search our weather history database for the weather conditions in past years. The results will help you decide how hot, cold, wet, or windy it might be!

Date:

Astronomy

Feb. 23, 2014 Rise Set
Actual Time 6:52 AM IST 6:17 PM IST
Civil Twilight 6:29 AM IST 6:41 PM IST
Nautical Twilight 6:01 AM IST 7:08 PM IST
Astronomical Twilight 5:34 AM IST 7:36 PM IST
Moon 1:09 AM IST (2/23) 12:08 PM IST (2/23)
Length of Visible Light 12h 12m
Length of Day
11h 24m
Last Quarter, 44% of the Moon is Illuminated
Feb 23
Last Quarter
Mar 1
New
Mar 8
First Quarter
Mar 16
Full
Mar 24
Last Quarter

Hourly Weather History & Observations

Time (IST) Temp. Dew Point Humidity Pressure Visibility Wind Dir Wind Speed Gust Speed Precip Events Conditions
12:00 AM 55.4 °F 55.4 °F 100% 30.09 in 0.4 mi Calm Calm - N/A Fog Shallow Fog
12:30 AM 55.4 °F 55.4 °F 100% 30.09 in 0.4 mi WNW 4.6 mph - N/A Fog Shallow Fog
1:00 AM 55.4 °F 55.4 °F 100% 30.09 in 0.4 mi Calm Calm - N/A Fog Shallow Fog
1:30 AM 55.4 °F 55.4 °F 100% 30.09 in 0.4 mi WNW 4.6 mph - N/A Fog Shallow Fog
2:00 AM 55.4 °F 55.4 °F 100% 30.09 in 0.2 mi West 4.6 mph - N/A Fog Fog
2:30 AM 55.4 °F 55.4 °F 100% 30.06 in 0.2 mi WNW 4.6 mph - N/A Fog Fog
3:00 AM 55.4 °F 55.4 °F 100% 30.06 in 0.2 mi West 4.6 mph - N/A Fog Fog
3:30 AM 55.4 °F 55.4 °F 100% 30.06 in 0.1 mi WSW 3.5 mph - N/A Fog Fog
4:00 AM 55.4 °F 55.4 °F 100% 30.06 in 0.1 mi West 2.3 mph - N/A Fog Fog
4:30 AM 53.6 °F 53.6 °F 100% 30.06 in 0.0 mi WSW 3.5 mph - N/A Fog Fog
5:00 AM 53.6 °F 53.6 °F 100% 30.06 in 0.0 mi SW 3.5 mph - N/A Fog Fog
5:30 AM 53.6 °F 53.6 °F 100% 30.06 in 0.0 mi NNW 4.6 mph - N/A Fog Fog
6:00 AM 53.6 °F 53.6 °F 100% 30.06 in 0.1 mi Calm Calm - N/A Fog Fog
6:30 AM 53.6 °F 53.6 °F 100% 30.09 in 0.1 mi Calm Calm - N/A Fog Fog
7:00 AM 53.6 °F 53.6 °F 100% 30.09 in 0.1 mi Calm Calm - N/A Fog Fog
7:30 AM 53.6 °F 53.6 °F 100% 30.09 in 0.1 mi Calm Calm - N/A Fog Fog
8:30 AM 55.4 °F 55.4 °F 100% 30.09 in 0.1 mi West 4.6 mph - N/A Fog Fog
9:00 AM 55.4 °F 55.4 °F 100% 30.15 in 0.1 mi West 8.1 mph - N/A Fog Fog
9:30 AM 55.4 °F 55.4 °F 100% 30.15 in 0.2 mi West 4.6 mph - N/A Fog Fog
10:00 AM 57.2 °F 57.2 °F 100% 30.15 in 0.4 mi West 6.9 mph - N/A Fog Shallow Fog
11:00 AM 59.0 °F 59.0 °F 100% 30.15 in 0.6 mi WNW 6.9 mph - N/A   Mist
11:30 AM 60.8 °F 59.0 °F 94% 30.15 in 0.7 mi WNW 8.1 mph - N/A   Mist
12:00 PM 62.6 °F 59.0 °F 88% 30.15 in 0.9 mi WNW 6.9 mph - N/A   Mist
1:00 PM 64.4 °F 57.2 °F 77% 30.12 in 1.1 mi WNW 9.2 mph - N/A   Mist
1:30 PM 68.0 °F 57.2 °F 68% 30.09 in 1.1 mi NW 9.2 mph - N/A   Haze
2:00 PM 68.0 °F 57.2 °F 68% 30.09 in 1.2 mi NW 10.4 mph - N/A   Haze
2:30 PM 68.0 °F 55.4 °F 64% 30.06 in 1.4 mi NW 9.2 mph - N/A   Haze
3:00 PM 69.8 °F 55.4 °F 60% 30.06 in 1.6 mi NW 9.2 mph - N/A   Haze
3:30 PM 69.8 °F 55.4 °F 60% 30.06 in 1.6 mi NW 9.2 mph - N/A   Haze
4:30 PM 68.0 °F 51.8 °F 56% 30.04 in 1.9 mi NW 6.9 mph - N/A   Haze
5:00 PM 68.0 °F 51.8 °F 56% 30.04 in 1.9 mi NW 8.1 mph - N/A   Haze
5:30 PM 66.2 °F 53.6 °F 64% 30.04 in 1.7 mi WNW 9.2 mph - N/A   Haze
6:00 PM 66.2 °F 53.6 °F 64% 30.06 in 1.7 mi NW 8.1 mph - N/A   Haze
6:30 PM 64.4 °F 51.8 °F 64% 30.06 in 1.6 mi NW 5.8 mph - N/A   Haze
7:00 PM 62.6 °F 53.6 °F 72% 30.06 in 1.4 mi WNW 5.8 mph - N/A   Haze
7:30 PM 62.6 °F 53.6 °F 72% 30.06 in 1.2 mi WNW 5.8 mph - N/A   Haze
8:00 PM 62.6 °F 55.4 °F 77% 30.09 in 1.1 mi WNW 5.8 mph - N/A   Haze
8:30 PM 60.8 °F 55.4 °F 82% 30.09 in 1.1 mi West 6.9 mph - N/A   Mist
9:00 PM 60.8 °F 55.4 °F 82% 30.09 in 1.0 mi West 5.8 mph - N/A   Mist
9:30 PM 59.0 °F 55.4 °F 88% 30.09 in 1.0 mi WNW 4.6 mph - N/A   Mist
10:00 PM 59.0 °F 55.4 °F 88% 30.09 in 1.0 mi West 3.5 mph - N/A   Mist
11:00 PM 57.2 °F 55.4 °F 94% 30.12 in 0.7 mi West 4.6 mph - N/A   Mist
11:30 PM 55.4 °F 53.6 °F 94% 30.12 in 0.6 mi West 3.5 mph - N/A   Mist